Погода в Обояни

Погода в Обояни : погода сейчас, прогноз погоды и архив. Всё, что Вы хотите узнать о погоде в Обояни!

Хотите узнать прогноз погоды в Обояни? Тогда Вам сюда: Погода в Обояни

Поиск расширенной информации на нашем сайте:

Другие новости

Новости СМИ2

Главная страница сайта

Новости сайта

02.10.2013

Напоминаем, что на нашем новом сайте вы можете получить высокодетализированные прогнозы погоды по пунктам России, СНГ и мира (включающие важные для авиации метеовеличины, такие как направление и скорость ветра, видимость, явления погоды, количество и форма облачности, нижняя и верхняя граница облачности), а также ознакомиться с разнообразными материалами по авиационной метеорологии и подборкой полезных ссылок на эту тему.

Сайт Метеоцентр.Азия посвящён разработке технологий оптимизации авиаметеорологического обслуживания, включая проектирование и перспективное создание нескольких автоматизированных авиаметеорологических систем:
- система выпуска высокодетальных прогностических карт явлений погоды для нижнего воздушного пространства по России и ближнему зарубежью;
- система верификации прогнозов TAF (выпускаемых синоптиками официальных АМСГ РФ и ближнего зарубежья) и AUTOTAF (выпускаемых сайтом Метеоцентр.Азия) - выявление ошибок, онлайн-сопоставление с фактической погодой METAR, автоматическое внесение коррективов в прогнозы при резком отклонении фактической погоды от прогноза, подсчёт оправдываемости прогнозов по элементам и в целом;
- система обработки, анализа и отображения авиаметеорологической информации для применения провайдерами метеорологической информации.

Рекомендуем: Самая подробная информация Ремонт стига на сайте.

Погода в Обояни - сегодня

Время (UTC), дата Ветер
(°,м/с) 
Видим.   Явления Облачность Т
(°С)
Тd
(°С)
f(%) Тe
(°С)
Pmin
(гПа)
dP
(гПа)
Po
(мм)
O2
(г/м3)
Тmin Tmax R s Состояние
почвы
18 24.06.17 тихо ()   10 км    8/3 600 м кучево-дожд., верхняя 
[Cb calv|Ci ing]
+16.8 +13.2 79 +23  1008.9  0.7  740  278    +21.8       
21 24.06.17 тихо ()   10 км    ясно 
+14.4 +11.8 84 +18  1009.6  0.5  740  281           
00 25.06.17 230 (ЮЗ) 10 км    10/10 600 м кучево-дожд. 
[Cb calv]
+14.3 +11.3 82 +19  1010  0.4  741  281           
03 25.06.17 тихо ()   10 км  {ливн. осадки}  10/0 средняя 
[Ac As]
+14.7 +13.4 92 +21  1010.1  0.1  741  280  +13.6       
06 25.06.17 100 (В) 10 км  {ливн. осадки}  10/0 средняя 
[Ac As]
+15.2 +13.4 89 +23  1010.4  0.3  741  280  +13.6       
09 25.06.17 240 (ЮЗ) 10 км    10/10 600 м кучево-дожд. 
[Cb calv]
+19.3 +14.7 75 +28  1010.3  0.2  741  276           
12 25.06.17 250 (З) 10 км    8/8 600 м кучево-дожд. 
[Cb calv]
+21.5 +13.8 62 +28  1010.8  0.7  742  274           
15 25.06.17 240 (ЮЗ) 10 км    5/5 600 м 
[Cu med, cong]
+22.9 +13.9 57 +30  1011  0.3  742  273           
18 25.06.17 230 (ЮЗ) 10 км    ясно 
+19.1 +14.5 75 +29  1011.6  0.3  742  276    +23.4       
21 25.06.17 230 (ЮЗ) 10 км    ясно 
+15.9 +13.6 86 +24  1012.2  0.4  742  280           
00 26.06.17 200 (Ю) 10 км    10/0 средняя 
[Ac As]
+17.1 +13.9 81 +26  1011.7  -0.4  742  279           
03 26.06.17 200 (Ю) 10 км    10/10 600 м кучево-дожд. 
[Cb calv]
+18.3 +14.7 80 +28  1012.1  0.4  742  277  +15.1         
06 26.06.17 190 (Ю) 10 км    8/0 верхняя 
[Ci fib]
+22.2 +16.1 68 +33  1011.2  -0.6  742  273  +15.1         
09 26.06.17 220 (ЮЗ) 10 км    10/10 600 м 
[Sc]
+23 +17.4 71 +36  1011.1  742  272           
12 26.06.17 220 (ЮЗ) 10 км    9/0 средняя 
[Ac cast]
+27.6 +17.1 53 +41  1009.2  -1.5  741  267           
15 26.06.17 200 (Ю) 10 км    ясно 
+28.4 +15.4 45 +38  1007.1  -1.9  739  267           
18 26.06.17 290 (З) 10 км    10/10 600 м кучево-дожд. 
[Cb calv]
+24.4 +14.9 55 +33  1007.5  739  270    +29.4       
21 26.06.17 200 (Ю) 10 км  {ливн. осадки}  10/10 600 м кучево-дожд. 
[Cb calv]
+19.8 +17 84 +34  1008.7  0.8  740  274           
00 27.06.17 230 (ЮЗ) 10 км  {ливн. осадки}  10/10 600 м кучево-дожд. 
[Cb calv]
+17.6 +15.9 90 +30  1009.1  0.3  740  277           
03 27.06.17 230 (ЮЗ) 10 км    10/10 600 м кучево-дожд. 
[Cb calv]
+17.2 +15.5 90 +29  1009.4  0.3  740  277  +17       
06 27.06.17 200 (Ю) 10 км    10/10 600 м кучево-дожд. 
[Cb calv]
+20.7 +18.1 85 +36  1009.4  0.3  741  273  +17       
09 27.06.17 230 (ЮЗ) 10 км    10/0 средняя 
[Ac trans]
+23.5 +18.1 72 +38  1010.5  1.5  741  271           
12 27.06.17 250 (З) 10 км    8/3 600 м средняя, верхняя 
[Cu med, cong|Ac cast|Ci fib]
+25.8 +17.4 60 +39  1010.4  741  269           
15 27.06.17 250 (З) 10 км    9/8 600 м кучево-дожд., средняя 
[Cb calv|Ac und]
+25 +15.8 57 +35  1010.2  -0.2  741  270           
18 27.06.17 тихо ()   10 км    4/3 1000 м верхняя 
[Sc|Ci fib]
+20.6 +16.5 77 +32  1011.4  0.9  742  274    +26.2       
Время (UTC), дата Ветер
(°,м/с) 
Видим.   Явления Облачность Т
(°С)
Тd
(°С)
f(%) Тe
(°С)
Pmin
(гПа)
dP
(гПа)
Po
(мм)
O2
(г/м3)
Тmin Tmax R s Состояние
почвы

Для получения пояснительной информации подведите курсор к названию столбца.

ПОГОДА в Обояни - архив

Всё, что Вы хотите узнать о погоде в Обояни - удобно и подробно!

Выберите нужную дату (начиная с 1 января 2015* года) и нажмите кнопку "Найти".
Будут отображены архивные сводки погоды по пункту Обоянь, начиная с указанной даты.


Отображать данные в формате CSV (для использования в таблицах Excel)


Внимание! Наш архив погоды предназначен исключительно для личного некоммерческого использования в познавательных целях. Если Вам необходимы официальные справки о состоянии погоды (для производственных, юридических, коммерческих и т.п. целей), обращайтесь в органы Росгидромета.

*Примечание: данная дата относится к архиву по метеостанциям СССР (Россия, СНГ, Балтия).
Архив по метеостанциям Зарубежной Европы и Азии (кроме Китая) хранится 10 дней, по другим регионам земного шара (Китай, Африка, Америка, Австралия, Океания) - 1 день.

Обоянь - район местоположения метеостанции


Название, широта, долгота, высота метеостанции:
Обоянь 51.2°ш. 36.3°д. 192 м над ур. моря [Российская Федерация]

Дополнительная информация

В oтличие oт бoльшинства пoгoдных сайтoв мы публикуем пoдрoбную метеoинфoрмацию в детальнoм прoфессиoнальнoм фoрмате.

Характеристики температуры и влажнoсти вoздуха измеряются на высoте 2 м в тени вдали oт зданий и деревьев.
Скoрoсть ветра измеряется на высoте 10 м (на урoвне рoста челoвека скoрoсть ветра ниже в 1.5-2 раза). Если метеoстанция нахoдится в гoрoде или в лесу, тo скoрoсть ветра занижена на 2-4 м/с пo сравнению с oткрытым местoм. Скoрoсть ветра над акватoриями крупных рек и oзёр, а также на вершинах хoлмoв на 2-5 м/с выше, чем в oбычных услoвиях.
Атмoсфернoе давление в разных тoчках местнoсти мoжет значительнo oтличаться oт давления на метеoстанции, в зависимoсти oт услoвий рельефа (при пoдъёме на 10 м давление пoнижается примернo на 1 мм рт.ст.).